Tracking 23722 objects as of 15-Oct-2021
HD Live streaming from Space Station
objects crossing your sky now

ARIANE 44L+ DEB

Track ARIANE 44L+ DEB now!


NORAD ID: 28577
Int'l Code: 1992-021R
Perigee: 1,050.7 km
Apogee: 35,658.2 km
Inclination: 3.9 °
Period: 644.9 minutes
Semi major axis: 24725 km
RCS: 0.242 m2 (medium)
Launch date: April 15, 1992
Source: France (FR)
Launch site: FRENCH GUIANA (FRGUI)

Note: This is SATELLITE DEBRIS
aabbcc
Your satellite tracking list
Your tracking list is empty




NASA's NSSDC Master Catalog

Two Line Element Set (TLE):
1 28577U 92021R   21288.38145778 -.00000286  00000-0  00000-0 0  9994
2 28577   3.8947 324.7471 6998369 225.8599 185.5845  2.23299366139618
Source of the keplerian elements: AFSPC